Time,TemperatureF,DewpointF,PressureIn,WindDirection,WindDirectionDegrees,WindSpeedMPH,WindSpeedGustMPH,Humidity,HourlyPrecipIn,Conditions,Clouds,dailyrainin,SoftwareType,DateUTC
2013-01-09 00:04:00,38.0,-99.9,-100.00,SSW,195,27.0,33.0,-999,-99.99,,,-99.99,,2013-01-09 05:04:00,
2013-01-09 00:12:00,38.0,-99.9,-100.00,SSW,195,27.0,33.0,-999,-99.99,,,-99.99,,2013-01-09 05:12:00,
2013-01-09 00:22:00,38.0,-99.9,-100.00,SSW,195,27.0,33.0,-999,-99.99,,,-99.99,,2013-01-09 05:22:00,
2013-01-09 00:33:00,38.0,-99.9,-100.00,SSW,193,24.0,29.0,-999,-99.99,,,-99.99,,2013-01-09 05:33:00,
2013-01-09 00:43:00,38.0,-99.9,-100.00,SSW,193,24.0,29.0,-999,-99.99,,,-99.99,,2013-01-09 05:43:00,
2013-01-09 00:53:00,38.0,-99.9,-100.00,SSW,195,24.0,0.0,-999,-99.99,,,-99.99,,2013-01-09 05:53:00,
2013-01-09 01:03:00,38.0,-99.9,-100.00,SSW,197,24.0,29.0,-999,-99.99,,,-99.99,,2013-01-09 06:03:00,
2013-01-09 01:12:00,38.0,-99.9,-100.00,SSW,197,24.0,29.0,-999,-99.99,,,-99.99,,2013-01-09 06:12:00,
2013-01-09 01:22:00,38.0,-99.9,-100.00,SSW,195,24.0,0.0,-999,-99.99,,,-99.99,,2013-01-09 06:22:00,
2013-01-09 01:32:00,38.0,-99.9,-100.00,SSW,195,24.0,0.0,-999,-99.99,,,-99.99,,2013-01-09 06:32:00,
2013-01-09 01:43:00,37.0,-99.9,-100.00,SSW,202,21.0,28.0,-999,-99.99,,,-99.99,,2013-01-09 06:43:00,
2013-01-09 01:53:00,37.0,-99.9,-100.00,SSW,202,21.0,28.0,-999,-99.99,,,-99.99,,2013-01-09 06:53:00,
2013-01-09 02:03:00,37.0,-99.9,-100.00,SSW,202,20.0,23.0,-999,-99.99,,,-99.99,,2013-01-09 07:03:00,
2013-01-09 02:12:00,37.0,-99.9,-100.00,SSW,202,20.0,23.0,-999,-99.99,,,-99.99,,2013-01-09 07:12:00,
2013-01-09 02:22:00,37.0,-99.9,-100.00,SSW,202,21.0,28.0,-999,-99.99,,,-99.99,,2013-01-09 07:22:00,
2013-01-09 02:32:00,37.0,-99.9,-100.00,SSW,202,21.0,28.0,-999,-99.99,,,-99.99,,2013-01-09 07:32:00,
2013-01-09 02:43:00,37.0,-99.9,-100.00,SSW,202,21.0,28.0,-999,-99.99,,,-99.99,,2013-01-09 07:43:00,
2013-01-09 02:53:00,37.0,-99.9,-100.00,SSW,202,21.0,28.0,-999,-99.99,,,-99.99,,2013-01-09 07:53:00,
2013-01-09 03:02:00,37.0,-99.9,-100.00,SW,225,15.0,20.0,-999,-99.99,,,-99.99,,2013-01-09 08:02:00,
2013-01-09 03:12:00,37.0,-99.9,-100.00,SW,225,15.0,20.0,-999,-99.99,,,-99.99,,2013-01-09 08:12:00,
2013-01-09 03:22:00,37.0,-99.9,-100.00,SW,225,15.0,20.0,-999,-99.99,,,-99.99,,2013-01-09 08:22:00,
2013-01-09 03:33:00,37.0,-99.9,-100.00,SW,225,15.0,20.0,-999,-99.99,,,-99.99,,2013-01-09 08:33:00,
2013-01-09 03:43:00,38.0,-99.9,-100.00,SW,232,22.0,29.0,-999,-99.99,,,-99.99,,2013-01-09 08:43:00,
2013-01-09 03:53:00,38.0,-99.9,-100.00,SW,232,22.0,29.0,-999,-99.99,,,-99.99,,2013-01-09 08:53:00,
2013-01-09 04:03:00,38.0,-99.9,-100.00,SW,230,22.0,31.0,-999,-99.99,,,-99.99,,2013-01-09 09:03:00,
2013-01-09 04:12:00,38.0,-99.9,-100.00,SW,230,22.0,31.0,-999,-99.99,,,-99.99,,2013-01-09 09:12:00,
2013-01-09 04:22:00,38.0,-99.9,-100.00,SW,232,22.0,29.0,-999,-99.99,,,-99.99,,2013-01-09 09:22:00,
2013-01-09 04:32:00,38.0,-99.9,-100.00,SW,232,22.0,29.0,-999,-99.99,,,-99.99,,2013-01-09 09:32:00,
2013-01-09 04:42:00,38.0,-99.9,-100.00,SW,232,22.0,29.0,-999,-99.99,,,-99.99,,2013-01-09 09:42:00,
2013-01-09 04:54:00,38.0,-99.9,-100.00,SW,232,22.0,29.0,-999,-99.99,,,-99.99,,2013-01-09 09:54:00,
2013-01-09 05:02:00,36.0,-99.9,-100.00,SW,234,20.0,28.0,-999,-99.99,,,-99.99,,2013-01-09 10:02:00,
2013-01-09 05:12:00,36.0,-99.9,-100.00,SW,234,20.0,28.0,-999,-99.99,,,-99.99,,2013-01-09 10:12:00,
2013-01-09 05:22:00,36.0,-99.9,-100.00,SW,234,20.0,29.0,-999,-99.99,,,-99.99,,2013-01-09 10:22:00,
2013-01-09 05:32:00,36.0,-99.9,-100.00,SW,234,20.0,29.0,-999,-99.99,,,-99.99,,2013-01-09 10:32:00,
2013-01-09 05:40:00,36.0,-99.9,-100.00,SW,234,17.0,22.0,-999,-99.99,,,-99.99,,2013-01-09 10:40:00,
2013-01-09 05:42:00,36.0,-99.9,-100.00,SW,234,20.0,29.0,-999,-99.99,,,-99.99,,2013-01-09 10:42:00,
2013-01-09 05:53:00,36.0,-99.9,-100.00,SW,234,20.0,29.0,-999,-99.99,,,-99.99,,2013-01-09 10:53:00,
2013-01-09 06:02:00,36.0,-99.9,-100.00,SW,234,17.0,22.0,-999,-99.99,,,-99.99,,2013-01-09 11:02:00,
2013-01-09 06:12:00,36.0,-99.9,-100.00,SW,234,17.0,22.0,-999,-99.99,,,-99.99,,2013-01-09 11:12:00,
2013-01-09 06:22:00,36.0,-99.9,-100.00,SW,234,17.0,22.0,-999,-99.99,,,-99.99,,2013-01-09 11:22:00,
2013-01-09 06:33:00,36.0,-99.9,-100.00,SW,234,17.0,22.0,-999,-99.99,,,-99.99,,2013-01-09 11:33:00,
2013-01-09 07:03:00,36.0,-99.9,-100.00,WSW,258,18.0,23.0,-999,-99.99,,,-99.99,,2013-01-09 12:03:00,
2013-01-09 07:13:00,36.0,-99.9,-100.00,WSW,258,18.0,23.0,-999,-99.99,,,-99.99,,2013-01-09 12:13:00,
2013-01-09 07:23:00,36.0,-99.9,-100.00,WSW,258,18.0,23.0,-999,-99.99,,,-99.99,,2013-01-09 12:23:00,
2013-01-09 07:33:00,36.0,-99.9,-100.00,WSW,252,17.0,23.0,-999,-99.99,,,-99.99,,2013-01-09 12:33:00,
2013-01-09 07:43:00,36.0,-99.9,-100.00,WSW,252,17.0,23.0,-999,-99.99,,,-99.99,,2013-01-09 12:43:00,
2013-01-09 07:53:00,36.0,-99.9,-100.00,WSW,252,17.0,23.0,-999,-99.99,,,-99.99,,2013-01-09 12:53:00,
2013-01-09 08:03:00,36.0,-99.9,-100.00,West,261,24.0,28.0,-999,-99.99,,,-99.99,,2013-01-09 13:03:00,
2013-01-09 08:12:00,36.0,-99.9,-100.00,West,261,24.0,28.0,-999,-99.99,,,-99.99,,2013-01-09 13:12:00,
2013-01-09 08:23:00,36.0,-99.9,-100.00,West,261,24.0,28.0,-999,-99.99,,,-99.99,,2013-01-09 13:23:00,
2013-01-09 08:33:00,35.0,-99.9,-100.00,WSW,256,15.0,28.0,-999,-99.99,,,-99.99,,2013-01-09 13:33:00,
2013-01-09 08:40:00,35.0,-99.9,-100.00,WSW,244,18.0,22.0,-999,-99.99,,,-99.99,,2013-01-09 13:40:00,
2013-01-09 08:43:00,35.0,-99.9,-100.00,WSW,256,15.0,28.0,-999,-99.99,,,-99.99,,2013-01-09 13:43:00,
2013-01-09 08:53:00,35.0,-99.9,-100.00,WSW,256,15.0,28.0,-999,-99.99,,,-99.99,,2013-01-09 13:53:00,
2013-01-09 09:03:00,35.0,-99.9,-100.00,WSW,244,18.0,22.0,-999,-99.99,,,-99.99,,2013-01-09 14:03:00,
2013-01-09 09:12:00,35.0,-99.9,-100.00,WSW,244,18.0,22.0,-999,-99.99,,,-99.99,,2013-01-09 14:12:00,
2013-01-09 09:23:00,35.0,-99.9,-100.00,WSW,244,18.0,22.0,-999,-99.99,,,-99.99,,2013-01-09 14:23:00,
2013-01-09 09:33:00,35.0,-99.9,-100.00,WSW,244,18.0,22.0,-999,-99.99,,,-99.99,,2013-01-09 14:33:00,
2013-01-09 10:04:00,34.0,-99.9,-100.00,SW,228,22.0,30.0,-999,-99.99,,,-99.99,,2013-01-09 15:04:00,
2013-01-09 10:13:00,34.0,-99.9,-100.00,SW,228,22.0,30.0,-999,-99.99,,,-99.99,,2013-01-09 15:13:00,
2013-01-09 10:23:00,34.0,-99.9,-100.00,SW,228,22.0,30.0,-999,-99.99,,,-99.99,,2013-01-09 15:23:00,
2013-01-09 10:33:00,35.0,-99.9,-100.00,WSW,237,26.0,0.0,-999,-99.99,,,-99.99,,2013-01-09 15:33:00,
2013-01-09 10:43:00,35.0,-99.9,-100.00,WSW,237,26.0,0.0,-999,-99.99,,,-99.99,,2013-01-09 15:43:00,
2013-01-09 10:53:00,35.0,-99.9,-100.00,WSW,237,26.0,0.0,-999,-99.99,,,-99.99,,2013-01-09 15:53:00,
2013-01-09 11:04:00,35.0,-99.9,-100.00,WSW,246,22.0,31.0,-999,-99.99,,,-99.99,,2013-01-09 16:04:00,
2013-01-09 11:13:00,35.0,-99.9,-100.00,WSW,246,22.0,31.0,-999,-99.99,,,-99.99,,2013-01-09 16:13:00,
2013-01-09 11:23:00,35.0,-99.9,-100.00,WSW,246,22.0,31.0,-999,-99.99,,,-99.99,,2013-01-09 16:23:00,
2013-01-09 11:34:00,34.0,-99.9,-100.00,WSW,255,20.0,28.0,-999,-99.99,,,-99.99,,2013-01-09 16:34:00,
2013-01-09 11:40:00,34.0,-99.9,-100.00,WSW,251,19.0,24.0,-999,-99.99,,,-99.99,,2013-01-09 16:40:00,
2013-01-09 11:43:00,34.0,-99.9,-100.00,WSW,255,20.0,28.0,-999,-99.99,,,-99.99,,2013-01-09 16:43:00,
2013-01-09 11:53:00,34.0,-99.9,-100.00,WSW,255,20.0,28.0,-999,-99.99,,,-99.99,,2013-01-09 16:53:00,
2013-01-09 12:03:00,34.0,-99.9,-100.00,WSW,251,19.0,24.0,-999,-99.99,,,-99.99,,2013-01-09 17:03:00,
2013-01-09 12:12:00,34.0,-99.9,-100.00,WSW,251,19.0,24.0,-999,-99.99,,,-99.99,,2013-01-09 17:12:00,
2013-01-09 12:23:00,34.0,-99.9,-100.00,WSW,251,19.0,24.0,-999,-99.99,,,-99.99,,2013-01-09 17:23:00,
2013-01-09 12:33:00,34.0,-99.9,-100.00,WSW,251,19.0,24.0,-999,-99.99,,,-99.99,,2013-01-09 17:33:00,
2013-01-09 13:03:00,35.0,-99.9,-100.00,West,262,19.0,24.0,-999,-99.99,,,-99.99,,2013-01-09 18:03:00,
2013-01-09 13:13:00,35.0,-99.9,-100.00,West,262,19.0,24.0,-999,-99.99,,,-99.99,,2013-01-09 18:13:00,
2013-01-09 13:24:00,35.0,-99.9,-100.00,West,268,20.0,27.0,-999,-99.99,,,-99.99,,2013-01-09 18:24:00,
2013-01-09 13:33:00,35.0,-99.9,-100.00,West,268,20.0,27.0,-999,-99.99,,,-99.99,,2013-01-09 18:33:00,
2013-01-09 13:40:00,36.0,-99.9,-100.00,WNW,294,26.0,32.0,-999,-99.99,,,-99.99,,2013-01-09 18:40:00,
2013-01-09 13:44:00,35.0,-99.9,-100.00,West,280,23.0,29.0,-999,-99.99,,,-99.99,,2013-01-09 18:44:00,
2013-01-09 13:53:00,35.0,-99.9,-100.00,West,280,23.0,29.0,-999,-99.99,,,-99.99,,2013-01-09 18:53:00,
2013-01-09 14:03:00,36.0,-99.9,-100.00,WNW,294,26.0,32.0,-999,-99.99,,,-99.99,,2013-01-09 19:03:00,
2013-01-09 14:13:00,36.0,-99.9,-100.00,WNW,294,26.0,32.0,-999,-99.99,,,-99.99,,2013-01-09 19:13:00,
2013-01-09 14:23:00,36.0,-99.9,-100.00,WNW,294,26.0,32.0,-999,-99.99,,,-99.99,,2013-01-09 19:23:00,
2013-01-09 14:33:00,36.0,-99.9,-100.00,WNW,294,26.0,32.0,-999,-99.99,,,-99.99,,2013-01-09 19:33:00,
2013-01-09 14:53:00,36.0,-99.9,-100.00,NW,306,19.0,26.0,-999,-99.99,,,-99.99,,2013-01-09 19:53:00,
2013-01-09 15:03:00,35.0,-99.9,-100.00,WNW,297,21.0,28.0,-999,-99.99,,,-99.99,,2013-01-09 20:03:00,
2013-01-09 15:12:00,35.0,-99.9,-100.00,WNW,297,21.0,28.0,-999,-99.99,,,-99.99,,2013-01-09 20:12:00,
2013-01-09 15:23:00,35.0,-99.9,-100.00,WNW,297,21.0,28.0,-999,-99.99,,,-99.99,,2013-01-09 20:23:00,
2013-01-09 15:33:00,36.0,-99.9,-100.00,NW,306,19.0,26.0,-999,-99.99,,,-99.99,,2013-01-09 20:33:00,
2013-01-09 15:43:00,36.0,-99.9,-100.00,NW,306,19.0,26.0,-999,-99.99,,,-99.99,,2013-01-09 20:43:00,
2013-01-09 15:53:00,35.0,-99.9,-100.00,WNW,291,16.0,29.0,-999,-99.99,,,-99.99,,2013-01-09 20:53:00,
2013-01-09 16:04:00,36.0,-99.9,-100.00,WNW,292,18.0,24.0,-999,-99.99,,,-99.99,,2013-01-09 21:04:00,
2013-01-09 16:13:00,36.0,-99.9,-100.00,WNW,292,18.0,24.0,-999,-99.99,,,-99.99,,2013-01-09 21:13:00,
2013-01-09 16:23:00,36.0,-99.9,-100.00,WNW,292,18.0,24.0,-999,-99.99,,,-99.99,,2013-01-09 21:23:00,
2013-01-09 16:33:00,35.0,-99.9,-100.00,WNW,291,16.0,29.0,-999,-99.99,,,-99.99,,2013-01-09 21:33:00,
2013-01-09 16:43:00,36.0,-99.9,-100.00,WNW,292,25.0,0.0,-999,-99.99,,,-99.99,,2013-01-09 21:43:00,
2013-01-09 16:53:00,36.0,-99.9,-100.00,WNW,292,25.0,0.0,-999,-99.99,,,-99.99,,2013-01-09 21:53:00,
2013-01-09 17:03:00,36.0,-99.9,-100.00,WNW,296,24.0,33.0,-999,-99.99,,,-99.99,,2013-01-09 22:03:00,
2013-01-09 17:13:00,36.0,-99.9,-100.00,WNW,296,24.0,33.0,-999,-99.99,,,-99.99,,2013-01-09 22:13:00,
2013-01-09 17:23:00,36.0,-99.9,-100.00,WNW,296,24.0,33.0,-999,-99.99,,,-99.99,,2013-01-09 22:23:00,
2013-01-09 17:33:00,36.0,-99.9,-100.00,WNW,292,25.0,0.0,-999,-99.99,,,-99.99,,2013-01-09 22:33:00,
2013-01-09 17:43:00,36.0,-99.9,-100.00,WNW,292,25.0,0.0,-999,-99.99,,,-99.99,,2013-01-09 22:43:00,
2013-01-09 17:53:00,36.0,-99.9,-100.00,WNW,292,25.0,0.0,-999,-99.99,,,-99.99,,2013-01-09 22:53:00,
2013-01-09 18:03:00,35.0,-99.9,-100.00,NW,305,18.0,24.0,-999,-99.99,,,-99.99,,2013-01-09 23:03:00,
2013-01-09 18:13:00,35.0,-99.9,-100.00,NW,305,18.0,24.0,-999,-99.99,,,-99.99,,2013-01-09 23:13:00,
2013-01-09 18:23:00,35.0,-99.9,-100.00,NW,305,18.0,28.0,-999,-99.99,,,-99.99,,2013-01-09 23:23:00,
2013-01-09 18:33:00,35.0,-99.9,-100.00,NW,305,18.0,28.0,-999,-99.99,,,-99.99,,2013-01-09 23:33:00,
2013-01-09 18:40:00,34.0,-99.9,-100.00,WNW,301,17.0,22.0,-999,-99.99,,,-99.99,,2013-01-09 23:40:00,
2013-01-09 18:43:00,35.0,-99.9,-100.00,NW,305,18.0,28.0,-999,-99.99,,,-99.99,,2013-01-09 23:43:00,
2013-01-09 18:53:00,35.0,-99.9,-100.00,NW,305,18.0,28.0,-999,-99.99,,,-99.99,,2013-01-09 23:53:00,
2013-01-09 19:03:00,34.0,-99.9,-100.00,WNW,301,17.0,22.0,-999,-99.99,,,-99.99,,2013-01-10 00:03:00,
2013-01-09 19:12:00,34.0,-99.9,-100.00,WNW,301,17.0,22.0,-999,-99.99,,,-99.99,,2013-01-10 00:12:00,
2013-01-09 19:23:00,34.0,-99.9,-100.00,WNW,301,17.0,22.0,-999,-99.99,,,-99.99,,2013-01-10 00:23:00,
2013-01-09 19:33:00,34.0,-99.9,-100.00,WNW,301,17.0,22.0,-999,-99.99,,,-99.99,,2013-01-10 00:33:00,
2013-01-09 20:03:00,32.0,-99.9,-100.00,WNW,286,1.0,4.0,-999,-99.99,,,-99.99,,2013-01-10 01:03:00,
2013-01-09 20:12:00,32.0,-99.9,-100.00,WNW,286,1.0,4.0,-999,-99.99,,,-99.99,,2013-01-10 01:12:00,
2013-01-09 20:23:00,32.0,-99.9,-100.00,WNW,286,1.0,4.0,-999,-99.99,,,-99.99,,2013-01-10 01:23:00,
2013-01-09 20:33:00,32.0,-99.9,-100.00,WNW,286,1.0,20.0,-999,-99.99,,,-99.99,,2013-01-10 01:33:00,
2013-01-09 20:40:00,31.0,-99.9,-100.00,West,281,1.0,2.0,-999,-99.99,,,-99.99,,2013-01-10 01:40:00,
2013-01-09 20:43:00,32.0,-99.9,-100.00,WNW,286,1.0,20.0,-999,-99.99,,,-99.99,,2013-01-10 01:43:00,
2013-01-09 20:53:00,32.0,-99.9,-100.00,WNW,286,1.0,20.0,-999,-99.99,,,-99.99,,2013-01-10 01:53:00,
2013-01-09 21:03:00,31.0,-99.9,-100.00,West,281,1.0,2.0,-999,-99.99,,,-99.99,,2013-01-10 02:03:00,
2013-01-09 21:13:00,31.0,-99.9,-100.00,West,281,1.0,2.0,-999,-99.99,,,-99.99,,2013-01-10 02:13:00,
2013-01-09 21:22:00,31.0,-99.9,-100.00,West,281,1.0,2.0,-999,-99.99,,,-99.99,,2013-01-10 02:22:00,
2013-01-09 21:33:00,31.0,-99.9,-100.00,West,281,1.0,2.0,-999,-99.99,,,-99.99,,2013-01-10 02:33:00,
2013-01-09 22:03:00,30.0,-99.9,-100.00,North,-999,0.0,2.0,-999,-99.99,,,-99.99,,2013-01-10 03:03:00,
2013-01-09 22:12:00,30.0,-99.9,-100.00,North,-999,0.0,2.0,-999,-99.99,,,-99.99,,2013-01-10 03:12:00,
2013-01-09 22:23:00,30.0,-99.9,-100.00,WNW,287,2.0,6.0,-999,-99.99,,,-99.99,,2013-01-10 03:23:00,
2013-01-09 22:33:00,30.0,-99.9,-100.00,WNW,287,2.0,6.0,-999,-99.99,,,-99.99,,2013-01-10 03:33:00,
2013-01-09 22:43:00,30.0,-99.9,-100.00,WNW,287,2.0,6.0,-999,-99.99,,,-99.99,,2013-01-10 03:43:00,
2013-01-09 22:53:00,30.0,-99.9,-100.00,WNW,287,2.0,6.0,-999,-99.99,,,-99.99,,2013-01-10 03:53:00,
2013-01-09 23:03:00,34.0,-99.9,-100.00,West,265,16.0,19.0,-999,-99.99,,,-99.99,,2013-01-10 04:03:00,
2013-01-09 23:12:00,34.0,-99.9,-100.00,West,265,16.0,19.0,-999,-99.99,,,-99.99,,2013-01-10 04:12:00,
2013-01-09 23:22:00,30.0,-99.9,-100.00,WNW,287,2.0,6.0,-999,-99.99,,,-99.99,,2013-01-10 04:22:00,
2013-01-09 23:32:00,30.0,-99.9,-100.00,WNW,287,2.0,6.0,-999,-99.99,,,-99.99,,2013-01-10 04:32:00,
2013-01-09 23:40:00,32.0,-99.9,-100.00,NNW,336,4.0,6.0,-999,-99.99,,,-99.99,,2013-01-10 04:40:00,
2013-01-09 23:43:00,30.0,-99.9,-100.00,WNW,287,2.0,6.0,-999,-99.99,,,-99.99,,2013-01-10 04:43:00,
2013-01-09 23:53:00,30.0,-99.9,-100.00,WNW,287,2.0,6.0,-999,-99.99,,,-99.99,,2013-01-10 04:53:00,